Time,TemperatureF,DewpointF,PressureIn,WindDirection,WindDirectionDegrees,WindSpeedMPH,WindSpeedGustMPH,Humidity,HourlyPrecipIn,Conditions,Clouds,dailyrainin,SoftwareType,DateUTC
2013-11-02 00:00:00,45.7,43.8,29.69,SW,229,0.0,5.0,93,0.00,,---,0.07,VWS V14.01,2013-11-02 04:00:00,
2013-11-02 00:01:00,45.7,43.8,29.69,SW,228,1.0,1.0,93,0.00,,---,0.00,VWS V14.01,2013-11-02 04:01:00,
2013-11-02 00:06:00,45.7,43.8,29.69,SSW,201,2.0,5.0,93,0.00,,---,0.00,VWS V14.01,2013-11-02 04:06:00,
2013-11-02 00:12:00,45.7,43.8,29.68,WSW,249,0.0,5.0,93,0.00,,---,0.00,VWS V14.01,2013-11-02 04:12:00,
2013-11-02 00:17:00,45.7,43.8,29.68,WNW,293,1.0,5.0,93,0.00,,---,0.00,VWS V14.01,2013-11-02 04:17:00,
2013-11-02 00:22:00,45.7,43.8,29.68,WSW,239,1.0,5.0,93,0.00,,---,0.00,VWS V14.01,2013-11-02 04:22:00,
2013-11-02 00:27:00,45.7,43.8,29.68,SSW,211,0.0,5.0,93,0.00,,---,0.00,VWS V14.01,2013-11-02 04:27:00,
2013-11-02 00:30:00,45.7,43.8,29.68,WSW,253,0.0,5.0,93,0.00,,---,0.00,VWS V14.01,2013-11-02 04:30:00,
2013-11-02 00:32:00,45.7,43.8,29.68,SW,225,3.0,4.0,93,0.00,,---,0.00,VWS V14.01,2013-11-02 04:32:00,
2013-11-02 00:37:00,45.7,43.8,29.68,West,259,0.0,4.0,93,0.00,,---,0.00,VWS V14.01,2013-11-02 04:37:00,
2013-11-02 00:41:00,45.7,43.8,29.68,WNW,301,1.0,5.0,93,0.00,,---,0.00,VWS V14.01,2013-11-02 04:41:00,
2013-11-02 00:46:00,45.7,43.5,29.68,SSW,207,1.0,5.0,92,0.00,,---,0.00,VWS V14.01,2013-11-02 04:46:00,
2013-11-02 00:52:00,45.7,43.5,29.68,WSW,256,1.0,5.0,92,0.00,,---,0.00,VWS V14.01,2013-11-02 04:52:00,
2013-11-02 00:57:00,45.7,43.5,29.68,WNW,295,0.0,6.0,92,0.00,,---,0.00,VWS V14.01,2013-11-02 04:57:00,
2013-11-02 01:00:00,45.7,43.5,29.69,West,278,3.0,6.0,92,0.00,,---,0.00,VWS V14.01,2013-11-02 05:00:00,
2013-11-02 01:01:00,45.7,43.5,29.69,West,280,3.0,5.0,92,0.00,,---,0.00,VWS V14.01,2013-11-02 05:01:00,
2013-11-02 01:06:00,45.7,43.2,29.69,NNW,333,2.0,5.0,91,0.00,,---,0.00,VWS V14.01,2013-11-02 05:06:00,
2013-11-02 01:11:00,45.7,43.2,29.69,SW,222,4.0,7.0,91,0.00,,---,0.00,VWS V14.01,2013-11-02 05:11:00,
2013-11-02 01:16:00,45.6,43.1,29.69,WNW,294,0.0,7.0,91,0.00,,---,0.00,VWS V14.01,2013-11-02 05:16:00,
2013-11-02 01:21:00,45.7,43.2,29.69,NW,313,1.0,7.0,91,0.00,,---,0.00,VWS V14.01,2013-11-02 05:21:00,
2013-11-02 01:26:00,45.6,43.1,29.69,WSW,256,3.0,7.0,91,0.00,,---,0.00,VWS V14.01,2013-11-02 05:26:00,
2013-11-02 01:30:00,45.6,43.1,29.69,SW,231,0.0,7.0,91,0.00,,---,0.00,VWS V14.01,2013-11-02 05:30:00,
2013-11-02 01:31:00,45.5,43.0,29.69,SSW,208,0.0,1.0,91,0.00,,---,0.00,VWS V14.01,2013-11-02 05:31:00,
2013-11-02 01:36:00,45.5,43.0,29.68,West,267,1.0,6.0,91,0.00,,---,0.00,VWS V14.01,2013-11-02 05:36:00,
2013-11-02 01:42:00,45.4,42.9,29.69,WNW,303,2.0,6.0,91,0.00,,---,0.00,VWS V14.01,2013-11-02 05:42:00,
2013-11-02 01:47:00,45.4,42.9,29.69,NW,309,1.0,6.0,91,0.00,,---,0.00,VWS V14.01,2013-11-02 05:47:00,
2013-11-02 01:52:00,45.4,42.9,29.69,SE,141,1.0,6.0,91,0.00,,---,0.00,VWS V14.01,2013-11-02 05:52:00,
2013-11-02 01:57:00,45.4,42.9,29.69,SSW,198,3.0,6.0,91,0.00,,---,0.00,VWS V14.01,2013-11-02 05:57:00,
2013-11-02 02:00:00,45.4,42.6,29.69,WNW,290,3.0,7.0,90,0.00,,---,0.00,VWS V14.01,2013-11-02 06:00:00,
2013-11-02 02:02:00,45.3,42.5,29.69,North,6,2.0,5.0,90,0.00,,---,0.00,VWS V14.01,2013-11-02 06:02:00,
2013-11-02 02:07:00,45.3,42.5,29.69,WSW,243,3.0,5.0,90,0.00,,---,0.00,VWS V14.01,2013-11-02 06:07:00,
2013-11-02 02:12:00,45.3,42.5,29.69,WNW,299,2.0,6.0,90,0.00,,---,0.00,VWS V14.01,2013-11-02 06:12:00,
2013-11-02 02:17:00,45.3,42.8,29.69,West,264,1.0,6.0,91,0.00,,---,0.00,VWS V14.01,2013-11-02 06:17:00,
2013-11-02 02:21:00,45.3,42.8,29.69,SSW,205,0.0,6.0,91,0.00,,---,0.00,VWS V14.01,2013-11-02 06:21:00,
2013-11-02 02:27:00,45.3,42.8,29.69,North,350,0.0,6.0,91,0.00,,---,0.00,VWS V14.01,2013-11-02 06:27:00,
2013-11-02 02:30:00,45.3,42.8,29.69,West,259,0.0,9.0,91,0.00,,---,0.00,VWS V14.01,2013-11-02 06:30:00,
2013-11-02 02:31:00,45.3,42.8,29.70,WSW,250,0.0,2.0,91,0.00,,---,0.00,VWS V14.01,2013-11-02 06:31:00,
2013-11-02 02:36:00,45.3,42.8,29.70,WSW,248,4.0,5.0,91,0.00,,---,0.00,VWS V14.01,2013-11-02 06:36:00,
2013-11-02 02:41:00,45.2,42.7,29.70,WSW,249,2.0,5.0,91,0.00,,---,0.00,VWS V14.01,2013-11-02 06:41:00,
2013-11-02 02:46:00,45.2,42.7,29.70,SSW,208,0.0,5.0,91,0.00,,---,0.00,VWS V14.01,2013-11-02 06:46:00,
2013-11-02 02:52:00,45.1,42.9,29.70,SW,229,0.0,5.0,92,0.00,,---,0.00,VWS V14.01,2013-11-02 06:52:00,
2013-11-02 02:57:00,45.1,42.9,29.70,SW,221,0.0,5.0,92,0.00,,---,0.00,VWS V14.01,2013-11-02 06:57:00,
2013-11-02 03:00:00,45.1,42.9,29.70,WSW,245,0.0,7.0,92,0.00,,---,0.00,VWS V14.01,2013-11-02 07:00:00,
2013-11-02 03:02:00,45.1,42.9,29.70,West,273,0.0,1.0,92,0.00,,---,0.00,VWS V14.01,2013-11-02 07:02:00,
2013-11-02 03:07:00,45.1,42.9,29.70,WSW,240,0.0,3.0,92,0.00,,---,0.00,VWS V14.01,2013-11-02 07:07:00,
2013-11-02 03:12:00,45.0,42.8,29.70,West,274,3.0,4.0,92,0.00,,---,0.00,VWS V14.01,2013-11-02 07:12:00,
2013-11-02 03:17:00,45.0,42.8,29.70,SSW,197,0.0,5.0,92,0.00,,---,0.00,VWS V14.01,2013-11-02 07:17:00,
2013-11-02 03:22:00,45.0,42.8,29.70,SW,229,0.0,5.0,92,0.00,,---,0.00,VWS V14.01,2013-11-02 07:22:00,
2013-11-02 03:27:00,44.9,42.7,29.70,WNW,295,4.0,8.0,92,0.00,,---,0.00,VWS V14.01,2013-11-02 07:27:00,
2013-11-02 03:30:00,44.9,42.7,29.70,SSW,212,0.0,8.0,92,0.00,,---,0.00,VWS V14.01,2013-11-02 07:30:00,
2013-11-02 03:32:00,44.9,42.7,29.70,SW,233,0.0,4.0,92,0.00,,---,0.00,VWS V14.01,2013-11-02 07:32:00,
2013-11-02 03:37:00,44.9,42.7,29.70,West,269,1.0,4.0,92,0.00,,---,0.00,VWS V14.01,2013-11-02 07:37:00,
2013-11-02 03:42:00,44.9,42.7,29.70,SW,233,0.0,5.0,92,0.00,,---,0.00,VWS V14.01,2013-11-02 07:42:00,
2013-11-02 03:47:00,44.8,42.6,29.70,West,263,3.0,5.0,92,0.00,,---,0.00,VWS V14.01,2013-11-02 07:47:00,
2013-11-02 03:52:00,44.8,42.9,29.70,WSW,240,3.0,5.0,93,0.00,,---,0.00,VWS V14.01,2013-11-02 07:52:00,
2013-11-02 03:57:00,44.8,42.9,29.70,WSW,243,0.0,6.0,93,0.00,,---,0.00,VWS V14.01,2013-11-02 07:57:00,
2013-11-02 04:00:00,44.8,42.9,29.70,WSW,256,1.0,6.0,93,0.00,,---,0.00,VWS V14.01,2013-11-02 08:00:00,
2013-11-02 04:02:00,44.8,42.9,29.70,SW,215,1.0,2.0,93,0.00,,---,0.00,VWS V14.01,2013-11-02 08:02:00,
2013-11-02 04:07:00,44.7,42.8,29.70,WNW,296,2.0,3.0,93,0.00,,---,0.00,VWS V14.01,2013-11-02 08:07:00,
2013-11-02 04:12:00,44.7,42.8,29.70,West,266,0.0,3.0,93,0.00,,---,0.00,VWS V14.01,2013-11-02 08:12:00,
2013-11-02 04:17:00,44.7,42.8,29.70,West,277,0.0,5.0,93,0.00,,---,0.00,VWS V14.01,2013-11-02 08:17:00,
2013-11-02 04:22:00,44.7,42.8,29.70,SW,228,0.0,5.0,93,0.00,,---,0.00,VWS V14.01,2013-11-02 08:22:00,
2013-11-02 04:27:00,44.7,42.8,29.71,SW,231,0.0,5.0,93,0.00,,---,0.00,VWS V14.01,2013-11-02 08:27:00,
2013-11-02 04:30:00,44.6,42.7,29.71,WSW,242,2.0,5.0,93,0.00,,---,0.00,VWS V14.01,2013-11-02 08:30:00,
2013-11-02 04:32:00,44.6,42.7,29.71,WSW,248,0.0,4.0,93,0.00,,---,0.00,VWS V14.01,2013-11-02 08:32:00,
2013-11-02 04:37:00,44.6,42.7,29.71,West,277,1.0,4.0,93,0.00,,---,0.00,VWS V14.01,2013-11-02 08:37:00,
2013-11-02 04:42:00,44.6,42.7,29.71,WSW,256,2.0,5.0,93,0.00,,---,0.00,VWS V14.01,2013-11-02 08:42:00,
2013-11-02 04:47:00,44.6,42.7,29.71,WNW,292,0.0,5.0,93,0.00,,---,0.00,VWS V14.01,2013-11-02 08:47:00,
2013-11-02 04:52:00,44.6,42.7,29.71,WSW,238,0.0,5.0,93,0.00,,---,0.00,VWS V14.01,2013-11-02 08:52:00,
2013-11-02 04:57:00,44.6,42.7,29.71,WNW,291,0.0,6.0,93,0.00,,---,0.00,VWS V14.01,2013-11-02 08:57:00,
2013-11-02 05:00:00,44.6,42.7,29.71,NNW,342,0.0,6.0,93,0.00,,---,0.00,VWS V14.01,2013-11-02 09:00:00,
2013-11-02 05:02:00,44.6,42.7,29.71,WSW,252,0.0,3.0,93,0.00,,---,0.00,VWS V14.01,2013-11-02 09:02:00,
2013-11-02 05:07:00,44.6,42.7,29.71,NW,321,3.0,3.0,93,0.00,,---,0.00,VWS V14.01,2013-11-02 09:07:00,
2013-11-02 05:12:00,44.6,42.7,29.71,SW,218,4.0,4.0,93,0.00,,---,0.00,VWS V14.01,2013-11-02 09:12:00,
2013-11-02 05:17:00,44.6,42.7,29.71,SW,228,0.0,4.0,93,0.00,,---,0.00,VWS V14.01,2013-11-02 09:17:00,
2013-11-02 05:22:00,44.6,42.7,29.72,WSW,250,0.0,4.0,93,0.00,,---,0.00,VWS V14.01,2013-11-02 09:22:00,
2013-11-02 05:27:00,44.6,42.7,29.72,SSW,198,0.0,5.0,93,0.00,,---,0.00,VWS V14.01,2013-11-02 09:27:00,
2013-11-02 05:30:00,44.6,42.7,29.72,SW,219,0.0,5.0,93,0.00,,---,0.00,VWS V14.01,2013-11-02 09:30:00,
2013-11-02 05:32:00,44.5,42.6,29.72,West,260,0.0,3.0,93,0.00,,---,0.00,VWS V14.01,2013-11-02 09:32:00,
2013-11-02 05:37:00,44.5,42.6,29.72,West,272,3.0,3.0,93,0.00,,---,0.00,VWS V14.01,2013-11-02 09:37:00,
2013-11-02 05:42:00,44.5,42.6,29.72,WSW,248,0.0,4.0,93,0.00,,---,0.00,VWS V14.01,2013-11-02 09:42:00,
2013-11-02 05:47:00,44.5,42.6,29.72,SW,217,1.0,6.0,93,0.00,,---,0.00,VWS V14.01,2013-11-02 09:47:00,
2013-11-02 05:52:00,44.5,42.6,29.73,SW,221,0.0,6.0,93,0.00,,---,0.00,VWS V14.01,2013-11-02 09:52:00,
2013-11-02 05:57:00,44.5,42.3,29.73,WSW,245,0.0,6.0,92,0.00,,---,0.00,VWS V14.01,2013-11-02 09:57:00,
2013-11-02 06:00:00,44.5,42.3,29.73,West,267,2.0,6.0,92,0.00,,---,0.00,VWS V14.01,2013-11-02 10:00:00,
2013-11-02 06:02:00,44.5,42.3,29.73,SW,221,2.0,5.0,92,0.00,,---,0.00,VWS V14.01,2013-11-02 10:02:00,
2013-11-02 06:07:00,44.5,42.3,29.73,WSW,250,1.0,5.0,92,0.00,,---,0.00,VWS V14.01,2013-11-02 10:07:00,
2013-11-02 06:12:00,44.4,42.2,29.73,SW,226,1.0,5.0,92,0.00,,---,0.00,VWS V14.01,2013-11-02 10:12:00,
2013-11-02 06:17:00,44.4,42.2,29.73,WNW,300,0.0,7.0,92,0.00,,---,0.00,VWS V14.01,2013-11-02 10:17:00,
2013-11-02 06:22:00,44.4,42.2,29.73,SSW,204,3.0,7.0,92,0.00,,---,0.00,VWS V14.01,2013-11-02 10:22:00,
2013-11-02 06:27:00,44.4,41.9,29.73,NW,309,1.0,7.0,91,0.00,,---,0.00,VWS V14.01,2013-11-02 10:27:00,
2013-11-02 06:30:00,44.4,41.9,29.73,SSE,164,0.0,7.0,91,0.00,,---,0.00,VWS V14.01,2013-11-02 10:30:00,
2013-11-02 06:32:00,44.4,41.9,29.73,WNW,299,3.0,4.0,91,0.00,,---,0.00,VWS V14.01,2013-11-02 10:32:00,
2013-11-02 06:37:00,44.3,42.1,29.74,WNW,300,0.0,4.0,92,0.00,,---,0.00,VWS V14.01,2013-11-02 10:37:00,
2013-11-02 06:42:00,44.3,42.1,29.74,SW,214,1.0,5.0,92,0.00,,---,0.00,VWS V14.01,2013-11-02 10:42:00,
2013-11-02 06:47:00,44.3,42.1,29.74,WSW,250,3.0,5.0,92,0.00,,---,0.00,VWS V14.01,2013-11-02 10:47:00,
2013-11-02 06:52:00,44.2,42.0,29.74,SSW,203,2.0,6.0,92,0.00,,---,0.00,VWS V14.01,2013-11-02 10:52:00,
2013-11-02 06:57:00,44.1,41.9,29.74,West,259,0.0,6.0,92,0.00,,---,0.00,VWS V14.01,2013-11-02 10:57:00,
2013-11-02 07:00:00,44.0,41.8,29.74,SW,231,1.0,6.0,92,0.00,,---,0.00,VWS V14.01,2013-11-02 11:00:00,
2013-11-02 07:02:00,43.9,41.7,29.74,WNW,283,1.0,3.0,92,0.00,,---,0.00,VWS V14.01,2013-11-02 11:02:00,
2013-11-02 07:07:00,43.8,41.6,29.74,SW,214,0.0,4.0,92,0.00,,---,0.00,VWS V14.01,2013-11-02 11:07:00,
2013-11-02 07:12:00,43.6,41.4,29.74,SW,225,1.0,4.0,92,0.00,,---,0.00,VWS V14.01,2013-11-02 11:12:00,
2013-11-02 07:17:00,43.6,41.4,29.74,NW,304,0.0,4.0,92,0.00,,---,0.00,VWS V14.01,2013-11-02 11:17:00,
2013-11-02 07:22:00,43.6,41.7,29.74,WSW,252,1.0,4.0,93,0.00,,---,0.00,VWS V14.01,2013-11-02 11:22:00,
2013-11-02 07:27:00,43.6,41.7,29.75,SW,217,0.0,4.0,93,0.00,,---,0.00,VWS V14.01,2013-11-02 11:27:00,
2013-11-02 07:30:00,43.6,41.7,29.75,WSW,245,0.0,4.0,93,0.00,,---,0.00,VWS V14.01,2013-11-02 11:30:00,
2013-11-02 07:33:00,43.7,41.8,29.75,WSW,243,0.0,3.0,93,0.00,,---,0.00,VWS V14.01,2013-11-02 11:33:00,
2013-11-02 07:38:00,43.7,41.8,29.75,WSW,243,1.0,3.0,93,0.00,,---,0.00,VWS V14.01,2013-11-02 11:38:00,
2013-11-02 07:43:00,43.8,41.9,29.75,SW,226,1.0,3.0,93,0.00,,---,0.00,VWS V14.01,2013-11-02 11:43:00,
2013-11-02 07:48:00,43.9,42.0,29.75,SW,235,1.0,3.0,93,0.00,,---,0.00,VWS V14.01,2013-11-02 11:48:00,
2013-11-02 07:53:00,43.9,42.0,29.75,West,262,2.0,3.0,93,0.00,,---,0.00,VWS V14.01,2013-11-02 11:53:00,
2013-11-02 07:58:00,43.9,42.0,29.75,West,260,0.0,3.0,93,0.00,,---,0.00,VWS V14.01,2013-11-02 11:58:00,
2013-11-02 08:00:00,44.0,42.1,29.75,SW,236,0.0,4.0,93,0.00,,---,0.00,VWS V14.01,2013-11-02 12:00:00,
2013-11-02 08:03:00,44.0,42.1,29.75,SW,231,1.0,3.0,93,0.00,,---,0.00,VWS V14.01,2013-11-02 12:03:00,
2013-11-02 08:08:00,44.2,42.3,29.75,SW,231,0.0,5.0,93,0.00,,---,0.00,VWS V14.01,2013-11-02 12:08:00,
2013-11-02 08:13:00,44.3,42.1,29.75,WSW,250,0.0,5.0,92,0.00,,---,0.00,VWS V14.01,2013-11-02 12:13:00,
2013-11-02 08:18:00,44.3,42.1,29.75,WNW,292,4.0,5.0,92,0.00,,---,0.00,VWS V14.01,2013-11-02 12:18:00,
2013-11-02 08:23:00,44.4,42.2,29.76,South,186,1.0,5.0,92,0.00,,---,0.00,VWS V14.01,2013-11-02 12:23:00,
2013-11-02 08:28:00,44.4,42.2,29.76,West,269,1.0,5.0,92,0.00,,---,0.00,VWS V14.01,2013-11-02 12:28:00,
2013-11-02 08:30:00,44.4,42.2,29.76,SW,233,3.0,5.0,92,0.00,,---,0.00,VWS V14.01,2013-11-02 12:30:00,
2013-11-02 08:33:00,44.4,41.9,29.76,WSW,245,0.0,5.0,91,0.00,,---,0.00,VWS V14.01,2013-11-02 12:33:00,
2013-11-02 08:38:00,44.5,42.0,29.76,SW,226,2.0,6.0,91,0.00,,---,0.00,VWS V14.01,2013-11-02 12:38:00,
2013-11-02 08:43:00,44.5,42.0,29.76,West,263,2.0,6.0,91,0.00,,---,0.00,VWS V14.01,2013-11-02 12:43:00,
2013-11-02 08:48:00,44.6,42.1,29.76,SW,219,1.0,6.0,91,0.00,,---,0.00,VWS V14.01,2013-11-02 12:48:00,
2013-11-02 08:53:00,44.6,42.1,29.77,SW,231,0.0,6.0,91,0.00,,---,0.00,VWS V14.01,2013-11-02 12:53:00,
2013-11-02 08:58:00,44.6,42.1,29.77,NW,307,2.0,6.0,91,0.00,,---,0.00,VWS V14.01,2013-11-02 12:58:00,
2013-11-02 09:00:00,44.6,42.1,29.77,NW,322,1.0,6.0,91,0.00,,---,0.00,VWS V14.01,2013-11-02 13:00:00,
2013-11-02 09:03:00,44.6,41.8,29.77,WSW,245,3.0,8.0,90,0.00,,---,0.00,VWS V14.01,2013-11-02 13:03:00,
2013-11-02 09:08:00,44.7,42.0,29.77,WSW,249,2.0,8.0,90,0.00,,---,0.00,VWS V14.01,2013-11-02 13:08:00,
2013-11-02 09:13:00,44.7,42.0,29.77,WNW,302,3.0,8.0,90,0.00,,---,0.00,VWS V14.01,2013-11-02 13:13:00,
2013-11-02 09:18:00,44.8,42.0,29.78,WSW,238,0.0,8.0,90,0.00,,---,0.00,VWS V14.01,2013-11-02 13:18:00,
2013-11-02 09:23:00,44.8,42.0,29.78,SW,218,0.0,8.0,90,0.00,,---,0.00,VWS V14.01,2013-11-02 13:23:00,
2013-11-02 09:28:00,44.8,42.0,29.78,West,259,3.0,8.0,90,0.00,,---,0.00,VWS V14.01,2013-11-02 13:28:00,
2013-11-02 09:30:00,44.8,42.0,29.78,WSW,242,2.0,8.0,90,0.00,,---,0.00,VWS V14.01,2013-11-02 13:30:00,
2013-11-02 09:33:00,44.9,42.2,29.78,WNW,283,3.0,4.0,90,0.00,,---,0.00,VWS V14.01,2013-11-02 13:33:00,
2013-11-02 09:38:00,44.9,42.2,29.78,West,263,4.0,11.0,90,0.00,,---,0.00,VWS V14.01,2013-11-02 13:38:00,
2013-11-02 09:43:00,45.1,42.3,29.78,WNW,300,2.0,11.0,90,0.00,,---,0.00,VWS V14.01,2013-11-02 13:43:00,
2013-11-02 09:48:00,45.2,42.5,29.79,WNW,300,1.0,11.0,90,0.00,,---,0.00,VWS V14.01,2013-11-02 13:48:00,
2013-11-02 09:53:00,45.4,42.3,29.79,NW,305,4.0,11.0,89,0.00,,---,0.00,VWS V14.01,2013-11-02 13:53:00,
2013-11-02 09:58:00,45.5,42.5,29.79,WSW,243,3.0,11.0,89,0.00,,---,0.00,VWS V14.01,2013-11-02 13:58:00,
2013-11-02 10:00:00,45.6,42.5,29.79,West,259,3.0,11.0,89,0.00,,---,0.00,VWS V14.01,2013-11-02 14:00:00,
2013-11-02 10:03:00,45.6,42.5,29.79,West,280,3.0,7.0,89,0.00,,---,0.00,VWS V14.01,2013-11-02 14:03:00,
2013-11-02 10:08:00,45.7,42.4,29.79,WSW,243,5.0,8.0,88,0.00,,---,0.00,VWS V14.01,2013-11-02 14:08:00,
2013-11-02 10:13:00,45.8,42.5,29.79,WSW,248,2.0,8.0,88,0.00,,---,0.00,VWS V14.01,2013-11-02 14:13:00,
2013-11-02 10:18:00,45.9,42.5,29.80,WNW,290,4.0,8.0,88,0.00,,---,0.00,VWS V14.01,2013-11-02 14:18:00,
2013-11-02 10:23:00,46.1,42.8,29.80,WNW,287,5.0,8.0,88,0.00,,---,0.00,VWS V14.01,2013-11-02 14:23:00,
2013-11-02 10:28:00,46.3,43.0,29.80,WNW,283,4.0,8.0,88,0.00,,---,0.00,VWS V14.01,2013-11-02 14:28:00,
2013-11-02 10:30:00,46.3,42.7,29.80,NW,307,1.0,8.0,87,0.00,,---,0.00,VWS V14.01,2013-11-02 14:30:00,
2013-11-02 10:33:00,46.5,43.1,29.80,WSW,250,5.0,8.0,88,0.00,,---,0.00,VWS V14.01,2013-11-02 14:33:00,
2013-11-02 10:38:00,46.5,42.8,29.80,North,358,0.0,8.0,87,0.00,,---,0.00,VWS V14.01,2013-11-02 14:38:00,
2013-11-02 10:43:00,46.5,42.5,29.80,ENE,65,0.0,8.0,86,0.00,,---,0.00,VWS V14.01,2013-11-02 14:43:00,
2013-11-02 10:48:00,46.5,42.5,29.80,West,260,2.0,8.0,86,0.00,,---,0.00,VWS V14.01,2013-11-02 14:48:00,
2013-11-02 10:53:00,46.6,42.9,29.81,NW,321,0.0,8.0,87,0.00,,---,0.00,VWS V14.01,2013-11-02 14:53:00,
2013-11-02 10:58:00,46.5,42.5,29.81,SSW,205,4.0,8.0,86,0.00,,---,0.00,VWS V14.01,2013-11-02 14:58:00,
2013-11-02 11:00:00,46.5,42.5,29.81,WSW,251,1.0,8.0,86,0.00,,---,0.00,VWS V14.01,2013-11-02 15:00:00,
2013-11-02 11:03:00,46.5,42.5,29.81,WSW,238,3.0,5.0,86,0.00,,---,0.00,VWS V14.01,2013-11-02 15:03:00,
2013-11-02 11:08:00,46.5,42.5,29.81,WSW,255,2.0,5.0,86,0.00,,---,0.00,VWS V14.01,2013-11-02 15:08:00,
2013-11-02 11:13:00,46.5,42.5,29.81,NE,34,2.0,7.0,86,0.00,,---,0.00,VWS V14.01,2013-11-02 15:13:00,
2013-11-02 11:18:00,46.5,42.5,29.81,SW,225,4.0,7.0,86,0.00,,---,0.00,VWS V14.01,2013-11-02 15:18:00,
2013-11-02 11:23:00,46.5,42.8,29.81,West,266,2.0,7.0,87,0.00,,---,0.00,VWS V14.01,2013-11-02 15:23:00,
2013-11-02 11:28:00,46.7,43.0,29.81,West,280,4.0,7.0,87,0.00,,---,0.00,VWS V14.01,2013-11-02 15:28:00,
2013-11-02 11:30:00,46.7,42.7,29.81,North,8,2.0,7.0,86,0.00,,---,0.00,VWS V14.01,2013-11-02 15:30:00,
2013-11-02 11:33:00,46.7,42.7,29.82,NW,313,2.0,6.0,86,0.00,,---,0.00,VWS V14.01,2013-11-02 15:33:00,
2013-11-02 11:38:00,46.7,42.7,29.82,NW,325,1.0,6.0,86,0.00,,---,0.00,VWS V14.01,2013-11-02 15:38:00,
2013-11-02 11:43:00,46.7,42.4,29.82,NNW,336,4.0,7.0,85,0.00,,---,0.00,VWS V14.01,2013-11-02 15:43:00,
2013-11-02 11:48:00,46.6,42.0,29.82,WNW,300,0.0,7.0,84,0.00,,---,0.00,VWS V14.01,2013-11-02 15:48:00,
2013-11-02 11:53:00,46.9,42.6,29.82,NW,308,0.0,7.0,85,0.00,,---,0.00,VWS V14.01,2013-11-02 15:53:00,
2013-11-02 11:58:00,47.1,42.5,29.82,West,280,1.0,9.0,84,0.00,,---,0.00,VWS V14.01,2013-11-02 15:58:00,
2013-11-02 12:00:00,47.2,42.6,29.82,NNW,338,2.0,9.0,84,0.00,,---,0.00,VWS V14.01,2013-11-02 16:00:00,
2013-11-02 12:03:00,47.5,42.9,29.82,WNW,293,2.0,4.0,84,0.00,,---,0.00,VWS V14.01,2013-11-02 16:03:00,
2013-11-02 12:08:00,47.7,42.8,29.83,NW,317,5.0,10.0,83,0.00,,---,0.00,VWS V14.01,2013-11-02 16:08:00,
2013-11-02 12:13:00,47.6,42.7,29.83,NW,304,2.0,10.0,83,0.00,,---,0.00,VWS V14.01,2013-11-02 16:13:00,
2013-11-02 12:18:00,47.5,42.6,29.83,NNW,341,4.0,10.0,83,0.00,,---,0.00,VWS V14.01,2013-11-02 16:18:00,
2013-11-02 12:23:00,47.5,42.6,29.83,NW,305,3.0,10.0,83,0.00,,---,0.00,VWS V14.01,2013-11-02 16:23:00,
2013-11-02 12:28:00,47.5,42.6,29.83,NW,321,2.0,10.0,83,0.00,,---,0.00,VWS V14.01,2013-11-02 16:28:00,
2013-11-02 12:30:00,47.5,42.6,29.83,NNW,331,5.0,10.0,83,0.00,,---,0.00,VWS V14.01,2013-11-02 16:30:00,
2013-11-02 12:33:00,47.6,42.7,29.84,WNW,288,4.0,6.0,83,0.00,,---,0.00,VWS V14.01,2013-11-02 16:33:00,
2013-11-02 12:38:00,47.6,42.7,29.84,NW,307,2.0,6.0,83,0.00,,---,0.00,VWS V14.01,2013-11-02 16:38:00,
2013-11-02 12:43:00,47.7,42.8,29.84,NW,312,4.0,6.0,83,0.00,,---,0.00,VWS V14.01,2013-11-02 16:43:00,
2013-11-02 12:48:00,47.8,42.9,29.84,NW,312,1.0,6.0,83,0.00,,---,0.00,VWS V14.01,2013-11-02 16:48:00,
2013-11-02 12:53:00,48.0,43.1,29.84,NW,307,2.0,7.0,83,0.00,,---,0.00,VWS V14.01,2013-11-02 16:53:00,
2013-11-02 12:58:00,48.4,43.5,29.84,NNW,348,3.0,7.0,83,0.00,,---,0.00,VWS V14.01,2013-11-02 16:58:00,
2013-11-02 13:00:00,48.5,43.6,29.84,NW,313,2.0,7.0,83,0.00,,---,0.00,VWS V14.01,2013-11-02 17:00:00,
2013-11-02 13:03:00,48.6,43.4,29.84,NW,314,2.0,4.0,82,0.00,,---,0.00,VWS V14.01,2013-11-02 17:03:00,
2013-11-02 13:08:00,48.7,43.1,29.84,NNW,327,1.0,6.0,81,0.00,,---,0.00,VWS V14.01,2013-11-02 17:08:00,
2013-11-02 13:13:00,48.9,43.3,29.84,NNE,32,4.0,6.0,81,0.00,,---,0.00,VWS V14.01,2013-11-02 17:13:00,
2013-11-02 13:18:00,48.7,42.8,29.84,NNW,333,3.0,9.0,80,0.00,,---,0.00,VWS V14.01,2013-11-02 17:18:00,
2013-11-02 13:23:00,48.7,43.5,29.85,NE,36,1.0,10.0,82,0.00,,---,0.00,VWS V14.01,2013-11-02 17:23:00,
2013-11-02 13:28:00,48.2,43.0,29.85,NW,316,5.0,10.0,82,0.00,,---,0.00,VWS V14.01,2013-11-02 17:28:00,
2013-11-02 13:30:00,48.0,42.8,29.85,NNW,335,4.0,10.0,82,0.00,,---,0.00,VWS V14.01,2013-11-02 17:30:00,
2013-11-02 13:33:00,47.6,43.3,29.85,NNW,335,5.0,10.0,85,0.00,,---,0.00,VWS V14.01,2013-11-02 17:33:00,
2013-11-02 13:38:00,47.1,42.8,29.85,North,4,6.0,12.0,85,0.00,,---,0.00,VWS V14.01,2013-11-02 17:38:00,
2013-11-02 13:43:00,46.7,42.4,29.85,NNW,330,2.0,12.0,85,0.00,,---,0.00,VWS V14.01,2013-11-02 17:43:00,
2013-11-02 13:48:00,46.6,42.9,29.85,North,360,8.0,12.0,87,0.00,,---,0.00,VWS V14.01,2013-11-02 17:48:00,
2013-11-02 13:54:00,46.2,42.5,29.85,NNW,340,7.0,12.0,87,0.01,,---,0.01,VWS V14.01,2013-11-02 17:54:00,
2013-11-02 13:59:00,45.8,42.8,29.85,NW,321,3.0,12.0,89,0.01,,---,0.01,VWS V14.01,2013-11-02 17:59:00,
2013-11-02 14:00:00,45.7,42.7,29.85,NW,319,4.0,12.0,89,0.01,,---,0.01,VWS V14.01,2013-11-02 18:00:00,
2013-11-02 14:04:00,45.6,42.5,29.85,NNW,328,4.0,7.0,89,0.01,,---,0.01,VWS V14.01,2013-11-02 18:04:00,
2013-11-02 14:09:00,45.7,43.2,29.86,NW,304,4.0,7.0,91,0.01,,---,0.01,VWS V14.01,2013-11-02 18:09:00,
2013-11-02 14:14:00,46.1,43.6,29.86,NW,312,6.0,7.0,91,0.01,,---,0.01,VWS V14.01,2013-11-02 18:14:00,
2013-11-02 14:19:00,46.5,43.4,29.86,NW,306,2.0,7.0,89,0.01,,---,0.01,VWS V14.01,2013-11-02 18:19:00,
2013-11-02 14:24:00,46.4,43.0,29.86,NNW,341,6.0,8.0,88,0.01,,---,0.01,VWS V14.01,2013-11-02 18:24:00,
2013-11-02 14:29:00,46.4,43.0,29.86,North,349,4.0,10.0,88,0.01,,---,0.01,VWS V14.01,2013-11-02 18:29:00,
2013-11-02 14:30:00,46.5,43.4,29.86,NNW,333,5.0,10.0,89,0.01,,---,0.01,VWS V14.01,2013-11-02 18:30:00,
2013-11-02 14:34:00,46.8,43.7,29.86,NNW,330,5.0,6.0,89,0.01,,---,0.01,VWS V14.01,2013-11-02 18:34:00,
2013-11-02 14:39:00,47.1,43.4,29.86,WNW,300,2.0,6.0,87,0.01,,---,0.01,VWS V14.01,2013-11-02 18:39:00,
2013-11-02 14:44:00,47.5,43.2,29.86,NW,325,4.0,10.0,85,0.01,,---,0.01,VWS V14.01,2013-11-02 18:44:00,
2013-11-02 14:49:00,47.9,43.6,29.86,NNW,336,2.0,10.0,85,0.01,,---,0.01,VWS V14.01,2013-11-02 18:49:00,
2013-11-02 14:54:00,47.9,43.0,29.86,NNW,338,4.0,12.0,83,0.01,,---,0.01,VWS V14.01,2013-11-02 18:54:00,
2013-11-02 14:59:00,47.9,42.7,29.87,NW,312,2.0,12.0,82,0.01,,---,0.01,VWS V14.01,2013-11-02 18:59:00,
2013-11-02 15:00:00,48.0,43.1,29.87,NW,321,4.0,12.0,83,0.01,,---,0.01,VWS V14.01,2013-11-02 19:00:00,
2013-11-02 15:04:00,48.0,42.8,29.87,NNW,347,1.0,7.0,82,0.00,,---,0.01,VWS V14.01,2013-11-02 19:04:00,
2013-11-02 15:09:00,48.4,43.5,29.87,NNW,346,5.0,9.0,83,0.00,,---,0.01,VWS V14.01,2013-11-02 19:09:00,
2013-11-02 15:14:00,49.2,43.3,29.87,NW,312,4.0,9.0,80,0.00,,---,0.01,VWS V14.01,2013-11-02 19:14:00,
2013-11-02 15:19:00,49.5,42.9,29.87,NNW,338,3.0,9.0,78,0.00,,---,0.01,VWS V14.01,2013-11-02 19:19:00,
2013-11-02 15:24:00,49.1,42.5,29.88,North,360,8.0,12.0,78,0.00,,---,0.01,VWS V14.01,2013-11-02 19:24:00,
2013-11-02 15:29:00,49.0,42.5,29.88,NW,312,3.0,12.0,78,0.00,,---,0.01,VWS V14.01,2013-11-02 19:29:00,
2013-11-02 15:30:00,49.1,42.5,29.88,NNE,24,4.0,12.0,78,0.00,,---,0.01,VWS V14.01,2013-11-02 19:30:00,
2013-11-02 15:34:00,49.4,42.5,29.88,NW,321,8.0,9.0,77,0.00,,---,0.01,VWS V14.01,2013-11-02 19:34:00,
2013-11-02 15:39:00,49.2,42.3,29.89,NNW,335,8.0,12.0,77,0.00,,---,0.01,VWS V14.01,2013-11-02 19:39:00,
2013-11-02 15:44:00,49.0,42.1,29.89,NW,319,9.0,12.0,77,0.00,,---,0.01,VWS V14.01,2013-11-02 19:44:00,
2013-11-02 15:49:00,48.9,41.7,29.89,NNW,339,3.0,12.0,76,0.00,,---,0.01,VWS V14.01,2013-11-02 19:49:00,
2013-11-02 15:54:00,49.0,41.8,29.89,North,358,6.0,12.0,76,0.00,,---,0.01,VWS V14.01,2013-11-02 19:54:00,
2013-11-02 16:00:00,48.8,41.2,29.89,NW,313,7.0,12.0,75,0.00,,---,0.01,VWS V14.01,2013-11-02 20:00:00,
2013-11-02 16:05:00,48.7,40.8,29.89,NNW,340,5.0,10.0,74,0.00,,---,0.01,VWS V14.01,2013-11-02 20:05:00,
2013-11-02 16:10:00,48.7,41.1,29.90,NW,323,4.0,10.0,75,0.00,,---,0.01,VWS V14.01,2013-11-02 20:10:00,
2013-11-02 16:15:00,48.8,40.9,29.90,NW,316,3.0,10.0,74,0.00,,---,0.01,VWS V14.01,2013-11-02 20:15:00,
2013-11-02 16:20:00,49.1,41.2,29.90,NW,323,3.0,10.0,74,0.00,,---,0.01,VWS V14.01,2013-11-02 20:20:00,
2013-11-02 16:25:00,49.5,41.6,29.90,NNW,329,4.0,10.0,74,0.00,,---,0.01,VWS V14.01,2013-11-02 20:25:00,
2013-11-02 16:30:00,49.9,41.6,29.90,West,259,3.0,13.0,73,0.00,,---,0.01,VWS V14.01,2013-11-02 20:30:00,
2013-11-02 16:35:00,50.0,41.0,29.91,NW,316,6.0,9.0,71,0.00,,---,0.01,VWS V14.01,2013-11-02 20:35:00,
2013-11-02 16:40:00,49.8,40.4,29.91,WNW,300,4.0,9.0,70,0.00,,---,0.01,VWS V14.01,2013-11-02 20:40:00,
2013-11-02 16:45:00,49.7,40.7,29.91,WNW,297,3.0,9.0,71,0.00,,---,0.01,VWS V14.01,2013-11-02 20:45:00,
2013-11-02 16:50:00,49.3,39.6,29.91,NNW,335,4.0,10.0,69,0.00,,---,0.01,VWS V14.01,2013-11-02 20:50:00,
2013-11-02 16:55:00,49.0,40.0,29.91,NNW,329,6.0,10.0,71,0.00,,---,0.01,VWS V14.01,2013-11-02 20:55:00,
2013-11-02 17:00:00,48.3,39.7,29.92,NW,324,9.0,17.0,72,0.00,,---,0.01,VWS V14.01,2013-11-02 21:00:00,
2013-11-02 17:05:00,47.2,39.0,29.93,NW,319,8.0,13.0,73,0.00,,---,0.01,VWS V14.01,2013-11-02 21:05:00,
2013-11-02 17:10:00,46.3,39.8,29.93,West,276,2.0,13.0,78,0.00,,---,0.01,VWS V14.01,2013-11-02 21:10:00,
2013-11-02 17:15:00,45.7,40.2,29.92,WNW,298,3.0,13.0,81,0.00,,---,0.01,VWS V14.01,2013-11-02 21:15:00,
2013-11-02 17:20:00,45.3,40.5,29.93,NW,307,0.0,13.0,83,0.00,,---,0.01,VWS V14.01,2013-11-02 21:20:00,
2013-11-02 17:25:00,45.2,40.3,29.93,North,4,4.0,13.0,83,0.00,,---,0.01,VWS V14.01,2013-11-02 21:25:00,
2013-11-02 17:30:00,45.2,40.0,29.94,NNW,340,3.0,3.0,82,0.00,,---,0.01,VWS V14.01,2013-11-02 21:30:00,
2013-11-02 17:35:00,45.2,40.0,29.94,NW,314,3.0,5.0,82,0.00,,---,0.01,VWS V14.01,2013-11-02 21:35:00,
2013-11-02 17:40:00,45.2,40.0,29.94,North,354,0.0,5.0,82,0.00,,---,0.01,VWS V14.01,2013-11-02 21:40:00,
2013-11-02 17:45:00,45.3,40.1,29.94,WNW,297,2.0,5.0,82,0.00,,---,0.01,VWS V14.01,2013-11-02 21:45:00,
2013-11-02 17:50:00,45.3,40.1,29.94,SW,229,1.0,5.0,82,0.00,,---,0.01,VWS V14.01,2013-11-02 21:50:00,
2013-11-02 17:55:00,45.4,40.2,29.94,NW,307,1.0,5.0,82,0.00,,---,0.01,VWS V14.01,2013-11-02 21:55:00,
2013-11-02 18:00:00,45.4,40.5,29.94,NW,316,2.0,2.0,83,0.00,,---,0.01,VWS V14.01,2013-11-02 22:00:00,
2013-11-02 18:05:00,45.5,40.7,29.95,WSW,241,3.0,4.0,83,0.00,,---,0.01,VWS V14.01,2013-11-02 22:05:00,
2013-11-02 18:11:00,45.6,40.7,29.95,West,280,2.0,5.0,83,0.00,,---,0.01,VWS V14.01,2013-11-02 22:11:00,
2013-11-02 18:16:00,45.8,40.6,29.95,NNE,24,1.0,5.0,82,0.00,,---,0.01,VWS V14.01,2013-11-02 22:16:00,
2013-11-02 18:21:00,45.9,40.7,29.95,NNW,335,7.0,7.0,82,0.00,,---,0.01,VWS V14.01,2013-11-02 22:21:00,
2013-11-02 18:26:00,45.9,40.7,29.95,NNW,335,2.0,7.0,82,0.00,,---,0.01,VWS V14.01,2013-11-02 22:26:00,
2013-11-02 18:30:00,45.9,40.4,29.95,NW,306,3.0,7.0,81,0.00,,---,0.01,VWS V14.01,2013-11-02 22:30:00,
2013-11-02 18:31:00,45.9,40.4,29.95,WNW,291,0.0,4.0,81,0.00,,---,0.01,VWS V14.01,2013-11-02 22:31:00,
2013-11-02 18:36:00,45.9,40.4,29.96,SSW,195,3.0,5.0,81,0.00,,---,0.01,VWS V14.01,2013-11-02 22:36:00,
2013-11-02 18:41:00,45.9,39.8,29.96,North,356,4.0,6.0,79,0.00,,---,0.01,VWS V14.01,2013-11-02 22:41:00,
2013-11-02 18:46:00,45.8,39.7,29.96,NW,322,5.0,6.0,79,0.00,,---,0.01,VWS V14.01,2013-11-02 22:46:00,
2013-11-02 18:51:00,45.8,39.3,29.96,NW,309,2.0,6.0,78,0.00,,---,0.01,VWS V14.01,2013-11-02 22:51:00,
2013-11-02 18:56:00,45.7,39.2,29.97,NW,325,4.0,9.0,78,0.00,,---,0.01,VWS V14.01,2013-11-02 22:56:00,
2013-11-02 19:00:00,45.7,39.2,29.97,NNW,330,1.0,9.0,78,0.00,,---,0.01,VWS V14.01,2013-11-02 23:00:00,
2013-11-02 19:01:00,45.7,39.2,29.97,NNW,333,4.0,5.0,78,0.00,,---,0.01,VWS V14.01,2013-11-02 23:01:00,
2013-11-02 19:06:00,45.7,38.9,29.97,NW,316,1.0,6.0,77,0.00,,---,0.01,VWS V14.01,2013-11-02 23:06:00,
2013-11-02 19:11:00,45.7,38.9,29.97,North,354,4.0,7.0,77,0.00,,---,0.01,VWS V14.01,2013-11-02 23:11:00,
2013-11-02 19:16:00,45.6,38.8,29.98,North,5,3.0,7.0,77,0.00,,---,0.01,VWS V14.01,2013-11-02 23:16:00,
2013-11-02 19:21:00,45.6,38.5,29.98,WNW,285,6.0,8.0,76,0.00,,---,0.01,VWS V14.01,2013-11-02 23:21:00,
2013-11-02 19:26:00,45.6,38.8,29.98,NNW,329,2.0,8.0,77,0.00,,---,0.01,VWS V14.01,2013-11-02 23:26:00,
2013-11-02 19:30:00,45.6,38.8,29.99,NNW,344,5.0,9.0,77,0.00,,---,0.01,VWS V14.01,2013-11-02 23:30:00,
2013-11-02 19:31:00,45.5,38.7,29.99,WNW,294,3.0,7.0,77,0.00,,---,0.01,VWS V14.01,2013-11-02 23:31:00,
2013-11-02 19:36:00,45.5,38.7,29.99,NW,307,1.0,7.0,77,0.00,,---,0.01,VWS V14.01,2013-11-02 23:36:00,
2013-11-02 19:41:00,45.4,39.0,29.99,NNW,331,0.0,7.0,78,0.00,,---,0.01,VWS V14.01,2013-11-02 23:41:00,
2013-11-02 19:46:00,45.3,39.2,30.00,NNE,15,2.0,7.0,79,0.00,,---,0.01,VWS V14.01,2013-11-02 23:46:00,
2013-11-02 19:51:00,45.2,39.1,30.00,NW,308,2.0,7.0,79,0.00,,---,0.01,VWS V14.01,2013-11-02 23:51:00,
2013-11-02 19:56:00,45.1,39.3,30.00,NW,308,4.0,8.0,80,0.00,,---,0.01,VWS V14.01,2013-11-02 23:56:00,
2013-11-02 20:00:00,45.1,39.3,30.01,NNW,331,2.0,8.0,80,0.00,,---,0.01,VWS V14.01,2013-11-03 00:00:00,
2013-11-02 20:01:00,45.1,39.3,30.01,North,360,2.0,3.0,80,0.00,,---,0.01,VWS V14.01,2013-11-03 00:01:00,
2013-11-02 20:06:00,45.1,39.6,30.01,NW,321,0.0,5.0,81,0.00,,---,0.01,VWS V14.01,2013-11-03 00:06:00,
2013-11-02 20:11:00,45.0,39.5,30.01,NW,307,1.0,5.0,81,0.00,,---,0.01,VWS V14.01,2013-11-03 00:11:00,
2013-11-02 20:16:00,44.9,39.4,30.01,North,355,4.0,5.0,81,0.00,,---,0.01,VWS V14.01,2013-11-03 00:16:00,
2013-11-02 20:21:00,44.8,39.3,30.02,NW,325,1.0,6.0,81,0.00,,---,0.01,VWS V14.01,2013-11-03 00:21:00,
2013-11-02 20:26:00,44.6,39.5,30.02,NNW,345,2.0,6.0,82,0.00,,---,0.01,VWS V14.01,2013-11-03 00:26:00,
2013-11-02 20:30:00,44.5,39.0,30.02,NNW,342,3.0,6.0,81,0.00,,---,0.01,VWS V14.01,2013-11-03 00:30:00,
2013-11-02 20:31:00,44.5,39.0,30.02,NNW,330,6.0,6.0,81,0.00,,---,0.01,VWS V14.01,2013-11-03 00:31:00,
2013-11-02 20:36:00,44.4,38.9,30.02,NW,312,2.0,8.0,81,0.00,,---,0.01,VWS V14.01,2013-11-03 00:36:00,
2013-11-02 20:41:00,44.3,38.5,30.02,NNW,338,1.0,8.0,80,0.00,,---,0.01,VWS V14.01,2013-11-03 00:41:00,
2013-11-02 20:46:00,44.1,38.7,30.03,WNW,295,1.0,8.0,81,0.00,,---,0.01,VWS V14.01,2013-11-03 00:46:00,
2013-11-02 20:51:00,44.1,38.7,30.03,NNE,13,0.0,8.0,81,0.00,,---,0.01,VWS V14.01,2013-11-03 00:51:00,
2013-11-02 20:56:00,43.9,38.5,30.03,NNW,339,0.0,8.0,81,0.00,,---,0.01,VWS V14.01,2013-11-03 00:56:00,
2013-11-02 21:00:00,43.8,38.4,30.03,WNW,290,1.0,8.0,81,0.00,,---,0.01,VWS V14.01,2013-11-03 01:00:00,
2013-11-02 21:01:00,43.7,38.3,30.03,West,281,1.0,2.0,81,0.00,,---,0.01,VWS V14.01,2013-11-03 01:01:00,
2013-11-02 21:06:00,43.6,38.5,30.03,NW,313,1.0,6.0,82,0.00,,---,0.01,VWS V14.01,2013-11-03 01:06:00,
2013-11-02 21:11:00,43.4,38.3,30.03,NW,309,0.0,6.0,82,0.00,,---,0.01,VWS V14.01,2013-11-03 01:11:00,
2013-11-02 21:16:00,43.3,38.2,30.03,NW,323,0.0,6.0,82,0.00,,---,0.01,VWS V14.01,2013-11-03 01:16:00,
2013-11-02 21:22:00,43.0,37.9,30.03,NNW,337,0.0,6.0,82,0.00,,---,0.01,VWS V14.01,2013-11-03 01:22:00,
2013-11-02 21:27:00,42.7,37.6,30.03,NNW,343,0.0,6.0,82,0.00,,---,0.01,VWS V14.01,2013-11-03 01:27:00,
2013-11-02 21:30:00,42.5,37.7,30.03,WNW,294,0.0,6.0,83,0.00,,---,0.01,VWS V14.01,2013-11-03 01:30:00,
2013-11-02 21:32:00,42.4,37.6,30.03,WNW,294,0.0,0.0,83,0.00,,---,0.01,VWS V14.01,2013-11-03 01:32:00,
2013-11-02 21:37:00,41.9,37.4,30.04,West,267,0.0,1.0,84,0.00,,---,0.01,VWS V14.01,2013-11-03 01:37:00,
2013-11-02 21:42:00,41.6,37.1,30.04,West,266,0.0,1.0,84,0.00,,---,0.01,VWS V14.01,2013-11-03 01:42:00,
2013-11-02 21:47:00,41.1,36.9,30.04,WSW,255,0.0,1.0,85,0.00,,---,0.01,VWS V14.01,2013-11-03 01:47:00,
2013-11-02 21:52:00,41.0,37.1,30.04,WSW,250,0.0,1.0,86,0.00,,---,0.01,VWS V14.01,2013-11-03 01:52:00,
2013-11-02 21:57:00,40.8,36.9,30.04,West,274,0.0,1.0,86,0.00,,---,0.01,VWS V14.01,2013-11-03 01:57:00,
2013-11-02 22:00:00,40.6,36.8,30.04,West,274,0.0,1.0,86,0.00,,---,0.01,VWS V14.01,2013-11-03 02:00:00,
2013-11-02 22:02:00,40.5,36.7,30.04,West,274,0.0,0.0,86,0.00,,---,0.01,VWS V14.01,2013-11-03 02:02:00,
2013-11-02 22:07:00,40.4,36.5,30.05,West,274,0.0,1.0,86,0.00,,---,0.01,VWS V14.01,2013-11-03 02:07:00,
2013-11-02 22:12:00,40.2,36.7,30.05,West,274,0.0,1.0,87,0.00,,---,0.01,VWS V14.01,2013-11-03 02:12:00,
2013-11-02 22:17:00,40.0,36.5,30.05,West,274,0.0,1.0,87,0.00,,---,0.01,VWS V14.01,2013-11-03 02:17:00,
2013-11-02 22:22:00,39.7,36.2,30.06,WSW,255,1.0,2.0,87,0.00,,---,0.01,VWS V14.01,2013-11-03 02:22:00,
2013-11-02 22:27:00,39.7,36.4,30.06,NW,309,0.0,2.0,88,0.00,,---,0.01,VWS V14.01,2013-11-03 02:27:00,
2013-11-02 22:30:00,39.7,36.2,30.06,NW,309,0.0,2.0,87,0.00,,---,0.01,VWS V14.01,2013-11-03 02:30:00,
2013-11-02 22:32:00,39.7,36.2,30.06,NW,309,0.0,0.0,87,0.00,,---,0.01,VWS V14.01,2013-11-03 02:32:00,
2013-11-02 22:37:00,39.6,36.3,30.06,West,281,0.0,1.0,88,0.00,,---,0.01,VWS V14.01,2013-11-03 02:37:00,
2013-11-02 22:42:00,39.6,36.3,30.06,West,281,0.0,1.0,88,0.00,,---,0.01,VWS V14.01,2013-11-03 02:42:00,
2013-11-02 22:47:00,39.6,36.3,30.06,WNW,284,0.0,1.0,88,0.00,,---,0.01,VWS V14.01,2013-11-03 02:47:00,
2013-11-02 22:52:00,39.7,36.4,30.07,NNW,330,1.0,1.0,88,0.00,,---,0.01,VWS V14.01,2013-11-03 02:52:00,
2013-11-02 22:57:00,39.8,36.5,30.07,NNW,330,0.0,1.0,88,0.00,,---,0.01,VWS V14.01,2013-11-03 02:57:00,
2013-11-02 23:00:00,40.0,36.7,30.07,NNW,330,0.0,1.0,88,0.00,,---,0.01,VWS V14.01,2013-11-03 03:00:00,
2013-11-02 23:02:00,40.0,36.7,30.06,NNW,330,0.0,0.0,88,0.00,,---,0.01,VWS V14.01,2013-11-03 03:02:00,
2013-11-02 23:07:00,40.2,36.9,30.07,NNW,330,0.0,1.0,88,0.00,,---,0.01,VWS V14.01,2013-11-03 03:07:00,
2013-11-02 23:12:00,40.5,37.2,30.07,NNW,330,0.0,1.0,88,0.00,,---,0.01,VWS V14.01,2013-11-03 03:12:00,
2013-11-02 23:17:00,40.8,37.5,30.07,NNW,333,3.0,3.0,88,0.00,,---,0.01,VWS V14.01,2013-11-03 03:17:00,
2013-11-02 23:22:00,41.1,37.8,30.07,NNW,331,1.0,3.0,88,0.00,,---,0.01,VWS V14.01,2013-11-03 03:22:00,
2013-11-02 23:27:00,41.3,37.7,30.07,NNW,335,1.0,4.0,87,0.00,,---,0.01,VWS V14.01,2013-11-03 03:27:00,
2013-11-02 23:30:00,41.3,37.7,30.07,NNW,335,0.0,4.0,87,0.00,,---,0.01,VWS V14.01,2013-11-03 03:30:00,
2013-11-02 23:32:00,41.3,37.7,30.07,NNW,335,0.0,1.0,87,0.00,,---,0.01,VWS V14.01,2013-11-03 03:32:00,
2013-11-02 23:37:00,41.3,37.7,30.07,NNW,335,0.0,1.0,87,0.00,,---,0.01,VWS V14.01,2013-11-03 03:37:00,
2013-11-02 23:42:00,41.2,37.9,30.07,NNW,335,0.0,1.0,88,0.00,,---,0.01,VWS V14.01,2013-11-03 03:42:00,
2013-11-02 23:47:00,41.3,38.0,30.07,NNW,330,1.0,2.0,88,0.00,,---,0.01,VWS V14.01,2013-11-03 03:47:00,
2013-11-02 23:52:00,41.3,38.0,30.07,NNW,330,1.0,2.0,88,0.00,,---,0.01,VWS V14.01,2013-11-03 03:52:00,
2013-11-02 23:57:00,41.2,37.9,30.07,NNW,344,0.0,2.0,88,0.00,,---,0.01,VWS V14.01,2013-11-03 03:57:00,